Wind_Speed
4 3 3 3 4 5 6 7 8 9 10 11 13 14 16 17 18 19 20 20 21 22 22 23 24 25 25 26 27 27 27 27 26 26 26 25 23 21 20 19 18 16 13 11
2 2 2 3 4 5 6 7 8 9 10 12 13 14 15 17 18 19 20 21 21 22 22 23 23 24 25 26 27 27 27 27 27 27 27 26 25 23 21 20 18 16 13 11
2 1 0 2 3 4 6 7 8 9 10 11 13 14 15 17 18 19 20 20 21 22 22 23 23 24 25 26 26 27 28 28 28 28 27 27 26 25 23 21 19 17 15 12
3 2 2 3 4 5 6 7 8 9 10 11 13 14 15 17 18 19 19 20 20 21 22 23 23 24 24 25 26 27 28 28 28 28 28 28 27 26 25 23 21 19 17 14
6 5 5 5 6 6 8 9 9 10 11 12 13 15 15 17 17 18 19 19 20 20 21 22 23 23 24 25 26 27 28 28 28 28 28 29 28 27 26 24 23 21 19 15
9 9 9 9 9 9 10 11 11 12 13 14 14 15 16 17 17 18 19 20 20 21 21 21 22 23 23 24 25 26 27 28 28 28 28 28 28 27 26 26 24 23 20 17
12 12 12 12 12 13 13 14 14 15 15 16 16 17 17 18 18 19 19 20 21 21 21 21 22 22 23 23 24 25 26 27 28 28 28 28 28 27 27 27 26 24 21 18
14 14 14 14 14 15 16 16 17 17 18 18 18 19 19 19 20 20 20 21 21 21 22 22 22 23 23 23 24 24 25 26 27 27 28 28 28 27 27 27 26 25 23 20
16 16 16 16 17 17 18 18 19 19 20 20 21 21 21 22 22 22 22 22 22 22 22 23 23 23 23 23 24 24 24 25 25 26 26 27 27 27 26 26 26 25 23 21
18 18 18 19 20 20 21 21 21 21 21 22 22 23 23 24 24 24 24 24 24 24 24 24 24 24 24 24 24 24 24 25 25 25 25 26 26 25 25 25 25 24 23 21
20 20 20 21 22 23 23 24 24 23 23 23 24 24 25 25 25 25 26 26 25 25 25 26 25 25 25 25 25 24 24 24 24 24 24 24 24 24 24 24 23 23 21 20
20 21 22 23 24 24 25 25 25 26 26 26 26 26 27 27 28 28 28 28 28 28 27 27 27 27 27 26 25 25 25 24 24 24 24 23 23 23 22 22 21 21 19 18
23 23 24 25 26 27 27 28 28 29 29 30 30 30 30 31 31 31 31 31 31 30 30 30 29 29 29 28 27 26 26 25 25 24 24 23 23 22 21 20 19 18 17 16
27 27 28 29 30 31 32 32 33 33 34 34 34 34 34 34 34 35 35 34 34 34 34 33 32 32 32 31 29 28 28 27 26 25 24 23 23 22 21 20 18 17 16 14
31 32 33 34 34 35 36 36 37 38 38 38 38 37 37 37 37 37 37 37 37 36 36 36 35 35 35 34 32 31 30 29 28 27 26 25 23 22 21 20 18 17 15 13
36 37 37 38 38 39 40 40 40 40 40 40 40 39 39 39 38 38 38 38 38 38 38 38 38 38 38 37 36 34 32 31 30 29 28 26 25 24 23 21 19 17 15 13
39 40 41 41 42 43 43 43 42 42 41 40 40 40 39 39 39 39 39 39 39 39 39 39 39 39 40 39 39 37 36 34 33 32 30 29 28 26 25 23 21 19 17 15
42 43 43 44 44 44 44 43 43 42 41 41 40 40 40 39 39 39 40 40 41 41 41 41 41 41 41 41 41 40 39 38 36 35 33 32 31 29 28 26 24 22 20 18
44 45 45 45 45 44 43 43 42 41 41 41 40 40 41 41 41 41 42 42 42 42 43 44 44 44 44 44 44 43 43 42 40 39 37 36 34 33 31 30 28 26 24 22
46 46 45 44 43 42 41 41 41 41 41 41 41 41 42 43 44 44 45 45 46 45 45 45 46 47 47 47 48 47 47 46 45 43 42 40 39 37 36 34 32 30 29 27
44 43 41 40 40 40 40 40 40 40 41 41 42 43 44 45 46 47 47 48 50 50 51 51 50 50 50 50 50 50 50 50 49 48 47 45 44 42 40 39 37 35 33 31
40 39 38 38 38 38 38 39 39 40 41 42 43 44 46 47 49 50 52 53 53 54 55 55 55 55 54 54 53 53 53 53 53 52 52 50 49 47 45 43 42 40 38 36
37 37 37 37 37 37 38 39 39 40 42 44 45 47 49 50 52 53 54 56 57 58 58 58 58 58 58 57 57 56 56 57 56 56 56 55 54 53 51 49 47 45 43 41
36 36 36 36 36 37 38 39 41 42 44 46 48 49 51 53 55 57 58 59 60 61 61 61 62 61 61 60 59 59 59 59 59 60 60 60 59 58 56 54 52 50 48 46
34 34 35 36 37 38 39 41 42 44 46 48 50 52 54 56 58 59 60 61 62 63 63 64 64 63 63 62 61 60 60 60 61 62 62 62 62 62 61 59 57 55 52 50
35 35 36 37 38 39 40 42 44 46 48 50 52 55 57 58 60 61 62 63 64 64 65 65 64 64 63 62 61 59 58 58 59 61 63 64 64 64 64 63 62 59 57 54
36 37 37 38 39 40 42 44 45 47 50 51 53 55 57 59 60 61 62 63 64 64 64 64 64 63 62 60 58 57 55 55 56 58 60 62 63 64 65 64 64 63 61 58
Wind_Direction
126 109 83 50 33 26 25 26 25 22 19 16 13 11 11 11 10 9 9 9 9 9 10 10 10 11 11 10 10 10 9 8 7 5 4 3 1 358 354 350 346 339 329 312
153 123 75 41 27 19 15 13 13 13 12 10 9 9 9 8 7 6 6 6 6 7 8 9 9 10 10 11 10 10 10 10 9 7 7 7 6 3 360 357 354 349 341 328
204 206 343 6 2 359 355 355 354 355 358 360 1 2 2 2 1 1 2 4 4 5 5 6 7 9 9 10 10 10 10 11 11 10 9 9 9 9 7 5 3 359 354 343
239 253 280 310 323 331 336 339 342 345 347 348 350 352 354 355 355 356 357 359 1 2 2 3 4 6 7 8 9 9 10 10 11 12 12 12 12 11 11 9 7 4 360 353
256 265 276 289 304 313 318 322 326 330 333 336 339 341 344 346 347 349 351 353 355 357 358 359 1 2 3 5 7 8 8 9 10 11 12 12 12 12 11 11 9 7 4 0
265 270 274 283 290 296 302 305 311 315 319 323 327 330 333 336 339 342 345 347 349 351 352 353 354 357 359 0 2 4 5 7 8 9 10 11 11 11 11 10 9 8 7 6
268 271 274 280 284 288 291 298 302 305 309 313 317 321 324 327 330 333 336 339 342 344 346 347 349 350 353 355 356 358 1 3 5 6 7 8 9 10 10 11 11 11 11 10
268 271 276 281 283 285 288 292 295 299 304 307 311 314 317 320 323 325 328 331 334 335 337 340 342 344 346 349 351 353 355 357 360 2 4 5 7 8 9 10 12 14 14 13
270 272 276 278 281 283 285 288 292 295 299 302 306 309 312 314 317 319 321 324 326 328 330 332 334 336 338 342 345 347 349 352 354 357 359 2 4 6 8 10 11 14 16 18
270 272 274 276 277 280 283 286 290 294 297 300 303 307 310 312 314 316 317 319 320 321 323 325 327 329 331 334 336 339 342 345 348 351 354 357 360 3 6 8 10 13 16 19
270 272 273 275 278 282 285 288 291 294 297 300 303 305 307 309 310 312 313 315 316 317 318 319 321 322 324 326 328 331 333 337 340 343 346 350 354 358 1 5 9 12 15 18
272 273 275 277 280 283 286 289 292 295 297 299 301 303 304 305 306 308 309 310 312 313 314 315 316 317 318 319 322 324 325 328 331 334 338 342 346 350 354 358 3 8 13 17
272 274 276 279 281 284 287 289 291 293 295 297 298 299 300 302 303 304 305 306 307 308 309 310 311 312 312 314 315 317 319 320 322 325 328 332 336 340 344 348 353 360 5 10
274 276 277 280 281 283 286 287 289 290 291 293 294 296 297 298 300 301 302 302 303 303 304 304 305 306 306 308 310 312 313 314 314 315 318 321 324 328 333 337 340 345 352 358
274 276 278 280 282 283 285 286 288 289 291 293 294 295 296 297 298 299 299 299 299 299 299 300 300 300 300 302 304 305 306 307 308 308 309 310 313 316 320 324 327 329 333 340
273 275 278 280 281 283 285 287 289 290 292 293 295 295 296 296 296 297 297 297 297 297 296 296 296 296 296 297 298 298 299 300 301 301 302 302 303 304 306 310 313 316 316 318
273 275 277 279 281 283 285 286 288 290 291 292 293 294 295 295 296 296 296 296 296 296 295 295 294 293 293 293 293 293 293 293 293 294 295 295 295 295 296 297 298 301 302 302
273 274 276 278 280 281 283 285 287 289 290 291 292 293 294 295 295 295 295 295 295 295 295 294 293 292 291 290 289 289 288 288 287 287 287 287 287 287 287 287 287 287 288 289
271 273 275 277 279 281 283 285 286 288 289 291 292 293 294 295 295 296 296 296 295 295 294 293 292 291 290 288 287 286 285 284 283 281 280 280 280 280 279 279 278 277 277 276
270 272 274 276 278 279 281 283 285 286 288 290 292 293 295 296 297 297 297 297 297 296 295 293 292 290 289 287 285 283 282 280 278 276 275 274 273 273 273 272 271 270 270 269
269 270 272 273 275 277 279 282 283 285 287 289 291 293 294 296 297 297 297 298 298 297 296 295 293 291 289 286 283 281 279 277 275 273 271 269 267 266 266 266 265 264 263 263
267 268 270 272 274 276 279 281 283 285 287 290 292 294 295 296 297 298 298 298 298 298 297 296 294 292 290 287 284 280 277 274 271 269 267 265 263 262 261 260 260 259 258 258
265 267 269 271 274 276 279 281 284 286 289 291 294 295 297 298 298 299 300 300 300 299 298 297 296 294 291 288 285 281 277 273 269 266 263 261 260 258 257 256 255 255 254 254
264 266 269 271 274 277 280 284 287 289 292 294 295 297 298 299 300 301 301 301 301 301 300 299 298 296 293 290 286 281 277 272 268 264 261 259 257 255 253 252 252 251 251 250
264 267 270 273 276 279 283 286 289 292 294 296 298 300 301 302 303 303 303 303 303 303 302 301 300 298 296 293 289 284 278 273 267 263 260 257 255 253 251 249 249 248 247 247
266 269 272 276 279 282 285 288 291 294 297 299 301 302 304 305 305 305 305 306 305 305 305 304 302 300 298 296 292 288 282 275 268 263 259 255 252 251 250 248 246 245 245 245
268 271 275 278 281 284 288 291 294 296 299 301 303 305 306 306 307 307 307 307 307 307 307 306 304 303 301 299 296 292 286 278 271 265 259 255 251 249 247 246 244 243 242 242
Height
5879 5879 5878 5878 5878 5876 5875 5874 5873 5871 5869 5867 5864 5861 5858 5855 5851 5847 5843 5839 5835 5830 5826 5821 5816 5811 5806 5801 5795 5790 5784 5778 5772 5767 5761 5755 5749 5744 5739 5734 5730 5726 5723 5720
5879 5879 5879 5878 5878 5877 5876 5874 5873 5871 5870 5867 5864 5861 5858 5855 5852 5848 5844 5840 5836 5831 5827 5822 5817 5812 5807 5802 5797 5791 5785 5779 5773 5767 5761 5755 5749 5743 5738 5733 5728 5724 5721 5718
5879 5879 5879 5879 5878 5877 5876 5875 5873 5871 5870 5867 5865 5862 5859 5856 5852 5849 5845 5841 5836 5832 5828 5823 5818 5813 5808 5803 5798 5792 5786 5781 5775 5769 5762 5756 5750 5744 5738 5733 5728 5724 5720 5717
5879 5880 5879 5881 5878 5877 5875 5874 5872 5871 5869 5867 5864 5861 5859 5855 5852 5849 5845 5841 5837 5832 5828 5824 5819 5814 5809 5804 5799 5794 5788 5782 5776 5770 5764 5758 5751 5745 5739 5734 5729 5724 5720 5716
5878 5878 5878 5878 5877 5875 5874 5873 5871 5870 5868 5866 5863 5860 5858 5855 5852 5848 5845 5841 5837 5833 5828 5824 5820 5815 5810 5805 5800 5795 5789 5784 5778 5772 5766 5760 5753 5747 5741 5736 5730 5725 5720 5716
5876 5876 5876 5877 5875 5874 5874 5872 5870 5868 5866 5864 5862 5860 5857 5854 5851 5847 5844 5840 5836 5832 5828 5824 5820 5816 5811 5806 5801 5796 5791 5785 5779 5773 5767 5761 5755 5749 5743 5737 5731 5726 5721 5716
5873 5873 5873 5873 5872 5872 5872 5871 5868 5865 5863 5861 5859 5858 5855 5852 5849 5846 5842 5839 5835 5832 5828 5824 5820 5815 5811 5806 5802 5797 5791 5786 5780 5775 5769 5763 5757 5751 5745 5739 5733 5727 5722 5717
5870 5870 5872 5870 5869 5869 5868 5865 5864 5862 5860 5858 5856 5854 5851 5849 5846 5843 5840 5837 5834 5830 5827 5823 5819 5815 5811 5806 5802 5797 5792 5787 5781 5776 5770 5765 5759 5753 5747 5742 5736 5730 5724 5719
5867 5869 5867 5866 5865 5864 5863 5861 5860 5858 5857 5855 5853 5850 5848 5845 5843 5840 5837 5834 5831 5828 5824 5821 5817 5813 5809 5805 5801 5796 5792 5787 5782 5777 5772 5766 5761 5755 5750 5744 5738 5733 5727 5722
5862 5862 5862 5861 5860 5859 5858 5857 5856 5854 5853 5851 5849 5846 5844 5842 5839 5836 5834 5831 5828 5825 5822 5818 5815 5811 5808 5804 5800 5796 5791 5787 5782 5778 5773 5768 5763 5757 5752 5747 5741 5736 5731 5726
5856 5857 5856 5856 5854 5854 5853 5852 5851 5849 5848 5846 5844 5842 5840 5837 5835 5832 5829 5827 5824 5821 5818 5815 5811 5808 5805 5801 5798 5794 5790 5786 5782 5778 5773 5769 5764 5759 5754 5749 5744 5739 5734 5730
5851 5851 5851 5850 5849 5848 5847 5846 5845 5843 5842 5840 5839 5837 5835 5832 5830 5827 5825 5822 5819 5816 5814 5810 5807 5804 5801 5798 5794 5791 5788 5784 5780 5777 5773 5769 5765 5760 5756 5752 5747 5742 5738 5733
5845 5845 5845 5844 5843 5842 5841 5840 5838 5837 5836 5834 5832 5830 5828 5826 5823 5821 5819 5816 5813 5811 5808 5805 5802 5799 5796 5793 5790 5787 5784 5781 5778 5775 5771 5768 5764 5760 5757 5753 5749 5745 5741 5737
5838 5838 5838 5837 5836 5835 5834 5833 5831 5830 5828 5827 5825 5823 5821 5818 5816 5813 5811 5808 5806 5803 5801 5798 5795 5793 5789 5787 5785 5783 5780 5777 5774 5772 5769 5766 5763 5759 5756 5753 5750 5746 5743 5739
5830 5830 5829 5828 5827 5826 5825 5824 5822 5821 5819 5817 5815 5813 5811 5809 5807 5804 5802 5799 5797 5795 5792 5790 5787 5785 5782 5780 5778 5776 5774 5772 5769 5767 5765 5762 5760 5757 5754 5752 5749 5746 5743 5740
5821 5820 5819 5819 5818 5816 5815 5814 5812 5811 5809 5807 5805 5803 5801 5799 5796 5794 5792 5789 5787 5785 5782 5780 5778 5776 5773 5772 5770 5768 5767 5765 5763 5761 5759 5757 5755 5753 5751 5749 5747 5744 5742 5740
5810 5810 5809 5808 5807 5805 5804 5803 5801 5800 5798 5796 5794 5792 5790 5788 5786 5783 5781 5778 5776 5774 5772 5770 5768 5765 5763 5761 5760 5759 5758 5757 5755 5754 5753 5751 5749 5748 5746 5745 5743 5741 5739 5738
5798 5798 5797 5796 5795 5794 5793 5791 5790 5789 5787 5785 5783 5781 5779 5777 5775 5772 5770 5767 5765 5762 5760 5758 5756 5754 5752 5750 5748 5747 5746 5746 5745 5744 5743 5742 5741 5740 5740 5738 5737 5736 5735 5734
5786 5786 5785 5784 5783 5782 5781 5779 5778 5777 5775 5773 5771 5769 5767 5765 5763 5760 5758 5755 5753 5751 5748 5745 5743 5741 5739 5737 5735 5734 5733 5733 5733 5732 5732 5732 5731 5731 5730 5730 5730 5729 5728 5728
5773 5773 5773 5772 5772 5771 5769 5768 5766 5765 5763 5762 5760 5757 5755 5752 5750 5747 5744 5741 5739 5737 5735 5732 5730 5727 5725 5722 5720 5719 5718 5718 5718 5718 5718 5718 5719 5719 5719 5720 5720 5720 5720 5720
5761 5761 5761 5760 5760 5759 5758 5757 5755 5754 5752 5750 5748 5745 5743 5740 5737 5734 5731 5728 5724 5721 5718 5716 5713 5711 5709 5706 5704 5703 5702 5701 5701 5701 5702 5703 5704 5704 5706 5707 5708 5708 5709 5710
5748 5749 5749 5749 5748 5748 5747 5745 5744 5742 5740 5738 5735 5732 5729 5726 5723 5719 5716 5713 5709 5705 5702 5698 5695 5692 5690 5687 5685 5684 5682 5682 5682 5682 5683 5684 5686 5688 5690 5691 5693 5695 5696 5698
5737 5737 5737 5737 5737 5736 5735 5733 5731 5729 5727 5725 5722 5719 5715 5712 5708 5704 5700 5696 5691 5687 5683 5679 5676 5672 5669 5667 5664 5662 5661 5660 5660 5660 5662 5663 5665 5668 5671 5674 5676 5679 5681 5683
5725 5726 5726 5726 5725 5724 5722 5721 5718 5716 5713 5711 5707 5704 5700 5696 5691 5687 5682 5677 5672 5668 5663 5659 5654 5650 5647 5643 5641 5638 5636 5635 5635 5636 5638 5640 5642 5646 5649 5653 5657 5661 5664 5667
5714 5714 5714 5714 5713 5712 5710 5708 5705 5702 5699 5695 5691 5687 5683 5679 5674 5669 5663 5658 5652 5647 5642 5637 5632 5627 5622 5618 5615 5612 5610 5609 5609 5610 5612 5614 5618 5622 5626 5630 5635 5640 5645 5649
5702 5702 5702 5701 5700 5699 5697 5694 5691 5688 5684 5680 5675 5670 5665 5660 5655 5649 5644 5638 5632 5626 5620 5615 5609 5604 5598 5594 5589 5586 5583 5582 5581 5582 5583 5587 5591 5596 5601 5607 5612 5618 5624 5629
5690 5690 5689 5688 5687 5685 5683 5680 5676 5673 5668 5664 5659 5654 5648 5643 5637 5631 5625 5619 5613 5606 5600 5593 5587 5581 5575 5570 5565 5561 5557 5555 5554 5554 5556 5559 5563 5569 5575 5581 5588 5594 5601 5608